Grand Junction, CO

6:02 PM MDT on October 14, 2019 (GMT -0600)
Walker

Weather History for KGJT - September, 2019

Change the Weather History Date:

Monday, September 16, 2019

  Actual Average Record
Temperature  
Mean Temperature 67 °F 66 °F  
Max Temperature 84 °F 80 °F 94 °F (2000)
Min Temperature 50 °F 52 °F 35 °F (1903)
Degree Days  
Heating Degree Days 0 2  
Month to date heating degree days 10 16  
Since 1 July heating degree days 10 19  
Cooling Degree Days 2 3  
Month to date cooling degree days 126 80  
Year to date cooling degree days 1247 1099  
Growing Degree Days 17 (Base 50)    
Moisture  
Dew Point 43 °F    
Average Humidity 43    
Maximum Humidity 59    
Minimum Humidity 26    
Precipitation  
Precipitation 0.00 in 0.04 in 0.51 in (2011)
Month to date precipitation 0.23 0.61  
Year to date precipitation 7.09 6.46  
Snow  
Snow 0.00 in 0.00 in 0.00 in (2018)
Month to date snowfall 0.0 0.0  
Since 1 July snowfall 0.0 0.0  
Since 1 September snowfall 0.0 0.0  
Snow Depth 0.00 in    
Sea Level Pressure  
Sea Level Pressure 29.86 in    
Wind  
Wind Speed 7 mph (ESE)    
Max Wind Speed 20 mph    
Max Gust Speed 25 mph    
Visibility 10 miles    
Events      
T = Trace of Precipitation, MM = Missing Value Source: NWS Daily Summary

Daily Weather History Graph

Daily Weather History Graph

Search for Another Location

Airport or City:

Astronomy

Sep. 16, 2019 Rise Set
Actual Time 6:56 AM MDT 7:21 PM MDT
Civil Twilight 6:29 AM MDT 7:47 PM MDT
Nautical Twilight 5:57 AM MDT 8:19 PM MDT
Astronomical Twilight 5:25 AM MDT 8:51 PM MDT
Moon 8:58 PM MDT (9/16) 9:05 AM MDT (9/16)
Length of Visible Light 13h 18m
Length of Day
12h 24m
Waning Gibbous, 94% of the Moon is Illuminated
Sep 16
Waning Gibbous
Sep 21
Last Quarter
Sep 28
New
Oct 5
First Quarter
Oct 13
Full

Hourly Weather History & Observations

Time (MDT) Temp. Dew Point Humidity Pressure Visibility Wind Dir Wind Speed Gust Speed Precip Events Conditions
12:53 AM 64.0 °F 35.1 °F 34% 29.89 in 10.0 mi North 3.5 mph - N/A   Clear
1:53 AM 60.1 °F 36.0 °F 41% 29.90 in 10.0 mi NNE 9.2 mph - N/A   Clear
2:53 AM 60.1 °F 39.9 °F 47% 29.89 in 10.0 mi West 4.6 mph - N/A   Clear
3:53 AM 54.0 °F 37.0 °F 53% 29.91 in 10.0 mi Calm Calm - N/A   Clear
4:53 AM 55.9 °F 37.0 °F 49% 29.91 in 10.0 mi ESE 6.9 mph - N/A   Clear
5:53 AM 53.1 °F 37.0 °F 55% 29.92 in 10.0 mi Calm Calm - N/A   Clear
6:53 AM 52.0 °F 37.0 °F 57% 29.95 in 10.0 mi NNE 4.6 mph - N/A   Clear
7:53 AM 55.0 °F 39.0 °F 55% 29.98 in 10.0 mi SE 3.5 mph - N/A   Clear
8:53 AM 64.9 °F 42.1 °F 43% 29.96 in 10.0 mi Calm Calm - N/A   Clear
9:53 AM 66.9 °F 43.0 °F 42% 29.97 in 10.0 mi Calm Calm - N/A   Clear
10:53 AM 73.0 °F 46.0 °F 38% 29.95 in 10.0 mi ENE 4.6 mph - N/A   Clear
11:53 AM 75.9 °F 48.0 °F 37% 29.92 in 10.0 mi SSE 5.8 mph - N/A   Clear
12:53 PM 79.0 °F 48.0 °F 34% 29.87 in 10.0 mi Variable 4.6 mph - N/A   Clear
1:53 PM 81.0 °F 48.9 °F 33% 29.84 in 10.0 mi NE 8.1 mph - N/A   Clear
2:53 PM 81.0 °F 48.9 °F 33% 29.82 in 10.0 mi Variable 3.5 mph - N/A   Partly Cloudy
3:53 PM 80.1 °F 48.0 °F 32% 29.81 in 10.0 mi Calm Calm - N/A   Partly Cloudy
4:53 PM 82.0 °F 46.9 °F 29% 29.78 in 10.0 mi South 5.8 mph - N/A   Scattered Clouds
5:53 PM 82.0 °F 45.0 °F 27% 29.77 in 10.0 mi SE 13.8 mph - N/A   Partly Cloudy
6:53 PM 80.1 °F 43.0 °F 27% 29.78 in 10.0 mi SE 10.4 mph - N/A   Clear
7:53 PM 75.0 °F 42.1 °F 31% 29.79 in 10.0 mi ESE 11.5 mph - N/A   Clear
8:53 PM 73.9 °F 46.0 °F 37% 29.77 in 10.0 mi SSE 15.0 mph - N/A   Clear
9:53 PM 71.1 °F 46.0 °F 41% 29.78 in 10.0 mi ESE 12.7 mph - N/A   Clear
10:53 PM 69.1 °F 46.0 °F 44% 29.77 in 10.0 mi East 13.8 mph - N/A   Clear
11:53 PM 69.1 °F 46.0 °F 44% 29.76 in 10.0 mi East 13.8 mph - N/A   Clear